Location: Finney State Fishing Lake and Wildlife Area
(38.1834°N, 100.3310°W)
Time: 13:52:15
(UTC+00:00)

BlueWalker 3 - Pass Details

Date: 13 December 2022
Orbit: 499 x 517 km, 53.2° (Epoch: 04 February)

Event Time Altitude Azimuth Distance (km) Brightness Sun altitude
Rises 01:51:23 0° 290° (WNW) 2,612 6.5 -28.6°
Reaches altitude 10° 01:54:52 10° 258° (WSW) 1,715 5.6 -29.3°
Maximum altitude 01:56:17 12° 236° (WSW) 1,605 5.2 -29.5°
Drops below altitude 10° 01:57:41 10° 215° (SW) 1,706 5.1 -29.8°
Enters shadow 01:59:04 - 198° (SSW) 1,979 5.2 -30.1°
